Weather History for Thermopolis, WY

Change the Weather History Date:

Thursday, October 11, 2012

  Actual Average (KWRL) Record (KWRL)
Temperature  
Mean Temperature 40 °F 47 °F  
Max Temperature 48 °F 62 °F 84 °F (1988)
Min Temperature 32 °F 33 °F 19 °F (2009)
Degree Days  
Heating Degree Days 25 18  
Month to date heating degree days 172  
Since 1 July heating degree days 429  
Cooling Degree Days 0 0  
Month to date cooling degree days 0  
Year to date cooling degree days 535  
Moisture  
Dew Point 31 °F    
Average Humidity 73    
Maximum Humidity 100    
Minimum Humidity 43    
Precipitation  
Precipitation 0.00 in 0.03 in 0.32 in (2008)
Month to date precipitation 0.33  
Year to date precipitation 6.63  
Sea Level Pressure  
Sea Level Pressure 30.21 in    
Wind  
Wind Speed 10 mph ()    
Max Wind Speed 22 mph    
Max Gust Speed 24 mph    
Visibility 9.7 miles    
Events      
T = Trace of Precipitation, MM = Missing Value Source: Averaged Metar Reports

Daily Weather History Graph

Daily Weather History Graph

Search for Another Location

Airport:

Trip Planner

Search our weather history database for the weather conditions in past years. The results will help you decide how hot, cold, wet, or windy it might be!

Date:

Astronomy

Oct. 11, 2012 Rise Set
Actual Time 7:22 AM MDT 6:35 PM MDT
Civil Twilight 6:54 AM MDT 7:04 PM MDT
Nautical Twilight 6:20 AM MDT 7:37 PM MDT
Astronomical Twilight 5:47 AM MDT 8:10 PM MDT
Moon 2:57 AM MDT (10/11) 4:19 PM MDT (10/11)
Length of Visible Light 12h 10m
Length of Day
11h 12m
Waning Crescent, 18% of the Moon is Illuminated
Oct 11
Waning Crescent
Oct 15
New
Oct 21
First Quarter
Oct 29
Full
Nov 6
Last Quarter

Hourly Weather History & Observations

Time (MDT) Temp. Windchill Dew Point Humidity Pressure Visibility Wind Dir Wind Speed Gust Speed Precip Events Conditions
12:15 AM 44.6 °F 37.8 °F 23.0 °F 43% 30.13 in 10.0 mi NW 15.0 mph - N/A   Mostly Cloudy
12:55 AM 44.6 °F 38.4 °F 24.8 °F 46% 30.14 in 10.0 mi NNW 12.7 mph - N/A   Scattered Clouds
1:15 AM 44.6 °F 38.1 °F 24.8 °F 46% 30.14 in 10.0 mi NNW 13.8 mph - N/A   Mostly Cloudy
1:35 AM 42.8 °F 36.2 °F 26.6 °F 53% 30.14 in 10.0 mi NNW 12.7 mph - N/A   Overcast
1:55 AM 42.8 °F 36.6 °F 24.8 °F 49% 30.15 in 10.0 mi NNW 11.5 mph - N/A   Overcast
2:15 AM 42.8 °F 35.8 °F 24.8 °F 49% 30.15 in 10.0 mi NNW 13.8 mph - N/A   Overcast
2:35 AM 41.0 °F 32.5 °F 26.6 °F 57% 30.15 in 10.0 mi NNW 17.3 mph - N/A   Overcast
2:55 AM 39.2 °F 30.8 °F 28.4 °F 65% 30.15 in 10.0 mi NNW 15.0 mph - N/A   Overcast
3:15 AM 37.4 °F 28.9 °F 28.4 °F 70% 30.16 in 10.0 mi NNW 13.8 mph - N/A   Scattered Clouds
3:35 AM 37.4 °F 29.8 °F 28.4 °F 70% 30.16 in 10.0 mi NNW 11.5 mph - N/A   Scattered Clouds
3:55 AM 37.4 °F 29.3 °F 28.4 °F 70% 30.16 in 10.0 mi NNW 12.7 mph - N/A   Scattered Clouds
4:15 AM 35.6 °F 26.6 °F 30.2 °F 81% 30.16 in 10.0 mi NNW 13.8 mph - N/A   Scattered Clouds
4:35 AM 33.8 °F 23.9 °F 30.2 °F 87% 30.17 in 10.0 mi NNW 15.0 mph - N/A   Scattered Clouds
4:55 AM 33.8 °F 24.3 °F 30.2 °F 87% 30.18 in 10.0 mi NNW 13.8 mph - N/A   Scattered Clouds
5:15 AM 33.8 °F 23.9 °F 30.2 °F 87% 30.18 in 10.0 mi NNW 15.0 mph - N/A   Clear
5:35 AM 33.8 °F 23.5 °F 30.2 °F 87% 30.18 in 10.0 mi NNW 16.1 mph - N/A   Clear
5:55 AM 32.0 °F 21.6 °F 30.2 °F 93% 30.19 in 10.0 mi NNW 15.0 mph - N/A   Scattered Clouds
6:15 AM 33.8 °F 25.8 °F 30.2 °F 87% 30.20 in 10.0 mi NNW 10.4 mph - N/A   Mostly Cloudy
6:35 AM 32.0 °F 23.6 °F 32.0 °F 100% 30.20 in 10.0 mi NNW 10.4 mph - N/A   Mostly Cloudy
6:55 AM 32.0 °F 24.2 °F 32.0 °F 100% 30.20 in 10.0 mi NNW 9.2 mph - N/A   Overcast
7:15 AM 32.0 °F 23.0 °F 32.0 °F 100% 30.21 in 10.0 mi NW 11.5 mph - N/A   Overcast
7:35 AM 32.0 °F 24.2 °F 32.0 °F 100% 30.21 in 10.0 mi NW 9.2 mph - N/A   Mostly Cloudy
7:55 AM 32.0 °F 26.4 °F 32.0 °F 100% 30.21 in 10.0 mi North 5.8 mph - N/A   Unknown
8:35 AM 32.0 °F 25.6 °F 32.0 °F 100% 30.23 in 5.0 mi NNW 6.9 mph - N/A   Clear
8:55 AM 32.0 °F 25.6 °F 32.0 °F 100% 30.23 in 2.5 mi NW 6.9 mph - N/A   Scattered Clouds
9:15 AM 33.8 °F 28.6 °F 32.0 °F 93% 30.24 in 7.0 mi NW 5.8 mph - N/A   Mostly Cloudy
9:35 AM 35.6 °F 30.7 °F 32.0 °F 87% 30.25 in 10.0 mi NW 5.8 mph - N/A   Mostly Cloudy
9:55 AM 33.8 °F 30.8 °F 32.0 °F 93% 30.25 in 10.0 mi NW 3.5 mph - N/A   Scattered Clouds
10:15 AM 35.6 °F 32.8 °F 32.0 °F 87% 30.26 in 10.0 mi NNW 3.5 mph - N/A   Scattered Clouds
10:35 AM 35.6 °F - 32.0 °F 87% 30.26 in 10.0 mi Calm Calm - N/A   Mostly Cloudy
11:35 AM 37.4 °F 32.1 °F 32.0 °F 81% 30.26 in 10.0 mi NNW 6.9 mph - N/A   Mostly Cloudy
11:55 AM 37.4 °F 34.9 °F 33.8 °F 87% 30.26 in 10.0 mi NNW 3.5 mph - N/A   Mostly Cloudy
12:15 PM 41.0 °F - 33.8 °F 76% 30.26 in 10.0 mi Calm Calm - N/A   Scattered Clouds
12:35 PM 41.0 °F 38.0 °F 33.8 °F 76% 30.26 in 10.0 mi NW 4.6 mph - N/A   Clear
12:55 PM 41.0 °F 38.0 °F 33.8 °F 76% 30.26 in 10.0 mi North 4.6 mph - N/A   Clear
1:15 PM 44.6 °F - 32.0 °F 61% 30.25 in 10.0 mi Calm Calm - N/A   Clear
1:35 PM 44.6 °F 43.1 °F 33.8 °F 66% 30.24 in 10.0 mi ENE 3.5 mph - N/A   Clear
1:55 PM 46.4 °F 43.5 °F 32.0 °F 57% 30.24 in 10.0 mi SE 5.8 mph - N/A   Clear
2:35 PM 46.4 °F - 33.8 °F 62% 30.23 in 10.0 mi Calm Calm - N/A   Clear
2:55 PM 44.6 °F 42.2 °F 33.8 °F 66% 30.23 in 10.0 mi NNW 4.6 mph - N/A   Clear
3:15 PM 44.6 °F 42.2 °F 33.8 °F 66% 30.23 in 10.0 mi NNE 4.6 mph - N/A   Clear
3:55 PM 46.4 °F - 33.8 °F 62% 30.23 in 10.0 mi Calm Calm - N/A   Clear
4:15 PM 44.6 °F - 33.8 °F 66% 30.22 in 10.0 mi Calm Calm - N/A   Clear
4:55 PM 48.2 °F - 32.0 °F 54% 30.21 in 10.0 mi ESE 9.2 mph - N/A   Clear
5:15 PM 48.2 °F - 32.0 °F 54% 30.21 in 10.0 mi East 9.2 mph - N/A   Clear
5:35 PM 46.4 °F 43.5 °F 32.0 °F 57% 30.21 in 10.0 mi ESE 5.8 mph - N/A   Clear
5:55 PM 46.4 °F 42.9 °F 32.0 °F 57% 30.21 in 10.0 mi ESE 6.9 mph - N/A   Clear
6:15 PM 42.8 °F - 32.0 °F 66% 30.21 in 10.0 mi Calm Calm - N/A   Clear
6:35 PM 41.0 °F - 32.0 °F 70% 30.21 in 10.0 mi Calm Calm - N/A   Clear
7:15 PM 42.8 °F 38.0 °F 32.0 °F 66% 30.21 in 10.0 mi SE 8.1 mph - N/A   Clear
7:35 PM 42.8 °F 37.5 °F 32.0 °F 66% 30.22 in 10.0 mi SE 9.2 mph - N/A   Clear
8:15 PM 42.8 °F 36.2 °F 32.0 °F 66% 30.22 in 10.0 mi ESE 12.7 mph - N/A   Clear
8:55 PM 42.8 °F 36.2 °F 32.0 °F 66% 30.22 in 10.0 mi ESE 12.7 mph - N/A   Clear
9:15 PM 42.8 °F 34.8 °F 32.0 °F 66% 30.22 in 10.0 mi SE 17.3 mph - N/A   Clear
10:35 PM 41.0 °F 31.9 °F 32.0 °F 70% 30.20 in 10.0 mi SE 19.6 mph - N/A   Clear
10:55 PM 41.0 °F 31.9 °F 32.0 °F 70% 30.20 in 10.0 mi SE 19.6 mph 24.2 mph N/A   Clear
11:15 PM 41.0 °F 32.5 °F 32.0 °F 70% 30.19 in 10.0 mi SE 17.3 mph 24.2 mph N/A   Clear
11:35 PM 41.0 °F 32.2 °F 32.0 °F 70% 30.19 in 10.0 mi SE 18.4 mph - N/A   Clear
11:55 PM 41.0 °F 31.4 °F 32.0 °F 70% 30.18 in 10.0 mi SE 21.9 mph - N/A   Clear